AAL351 KJAX-KMIA

Flight info

Callsign AAL351
Flight time 1h 20m
Altitude 28000
Route EXBOX2 EXBOX PRMUS DEBRL CSTAL3
Aircraft B738/M-SDE2E3FGHIRWXY/LB1

Departure

Time 2026-05-05 20:03
Airport Jacksonville International Airport (KJAX)

Arrival

Time 2026-05-05 21:24
Airport Miami International Airport (KMIA)
Time Latitude Longitude Altitude Speed Heading
2026-05-05 19:35 30.48963 -81.68592 40 ft 0 kts 331°
2026-05-05 19:49 30.48954 -81.68587 40 ft 4 kts 327°
2026-05-05 19:50 30.48934 -81.68567 39 ft 4 kts 304°
2026-05-05 19:50 30.48925 -81.68543 40 ft 4 kts 248°
2026-05-05 19:50 30.48931 -81.68533 40 ft 0 kts 206°
2026-05-05 19:55 30.48931 -81.68532 41 ft 0 kts 206°
2026-05-05 19:56 30.48929 -81.68533 41 ft 1 kts 206°
2026-05-05 19:56 30.48910 -81.68544 40 ft 6 kts 205°
2026-05-05 19:56 30.48868 -81.68595 39 ft 13 kts 256°
2026-05-05 19:57 30.48888 -81.68670 38 ft 8 kts 291°
2026-05-05 19:57 30.48918 -81.68733 37 ft 9 kts 312°
2026-05-05 19:57 30.48962 -81.68780 37 ft 9 kts 326°
2026-05-05 19:57 30.49016 -81.68811 36 ft 4 kts 334°
2026-05-05 19:58 30.49017 -81.68812 36 ft 0 kts 323°
2026-05-05 19:58 30.49023 -81.68822 36 ft 4 kts 303°
2026-05-05 19:58 30.49048 -81.68868 37 ft 9 kts 298°
2026-05-05 19:58 30.49079 -81.68947 38 ft 13 kts 293°
2026-05-05 19:59 30.49095 -81.69060 38 ft 17 kts 245°
2026-05-05 19:59 30.49016 -81.69179 35 ft 19 kts 230°
2026-05-05 19:59 30.48942 -81.69282 33 ft 6 kts 230°
2026-05-05 19:59 30.48912 -81.69338 35 ft 10 kts 256°
2026-05-05 20:00 30.48936 -81.69414 33 ft 12 kts 309°
2026-05-05 20:00 30.48994 -81.69490 33 ft 14 kts 312°
2026-05-05 20:00 30.49054 -81.69571 38 ft 13 kts 310°
2026-05-05 20:00 30.49116 -81.69657 39 ft 15 kts 310°
2026-05-05 20:01 30.49192 -81.69761 37 ft 19 kts 310°
2026-05-05 20:01 30.49281 -81.69877 37 ft 20 kts 312°
2026-05-05 20:01 30.49289 -81.70000 34 ft 17 kts 221°
2026-05-05 20:01 30.49201 -81.70057 37 ft 12 kts 173°
2026-05-05 20:02 30.49188 -81.70050 41 ft 0 kts 142°
2026-05-05 20:02 30.49186 -81.70048 41 ft 1 kts 137°
2026-05-05 20:02 30.49092 -81.69912 37 ft 63 kts 129°
2026-05-05 20:02 30.48617 -81.69259 31 ft 147 kts 130°
2026-05-05 20:03 30.47844 -81.68247 599 ft 173 kts 133°
2026-05-05 20:03 30.46937 -81.67256 1629 ft 188 kts 137°
2026-05-05 20:03 30.46000 -81.66129 2413 ft 192 kts 133°
2026-05-05 20:03 30.45107 -81.65025 2611 ft 181 kts 136°
2026-05-05 20:04 30.44127 -81.64165 2556 ft 176 kts 146°
2026-05-05 20:04 30.43071 -81.63422 2297 ft 177 kts 147°
2026-05-05 20:04 30.42183 -81.62866 2375 ft 169 kts 152°
2026-05-05 20:04 30.48964 -81.68593 2375 ft 17 kts 331°
2026-05-05 20:11 30.48963 -81.68593 39 ft 0 kts 331°
2026-05-05 20:14 30.48963 -81.68592 39 ft 0 kts 331°
2026-05-05 20:18 30.48959 -81.68590 40 ft 3 kts 332°
2026-05-05 20:18 30.48937 -81.68575 36 ft 4 kts 317°
2026-05-05 20:19 30.48924 -81.68552 41 ft 4 kts 264°
2026-05-05 20:19 30.48933 -81.68531 37 ft 2 kts 206°
2026-05-05 20:19 30.48938 -81.68529 37 ft 2 kts 206°
2026-05-05 20:22 30.48937 -81.68529 37 ft 0 kts 206°
2026-05-05 20:22 30.48933 -81.68531 37 ft 1 kts 204°
2026-05-05 20:23 30.48917 -81.68539 37 ft 3 kts 202°
2026-05-05 20:23 30.48886 -81.68556 41 ft 7 kts 212°
2026-05-05 20:23 30.48861 -81.68619 37 ft 11 kts 266°
2026-05-05 20:23 30.48900 -81.68690 37 ft 13 kts 337°
2026-05-05 20:24 30.48982 -81.68754 36 ft 16 kts 322°
2026-05-05 20:24 30.49046 -81.68869 37 ft 18 kts 295°
2026-05-05 20:24 30.49100 -81.69001 38 ft 19 kts 294°
2026-05-05 20:24 30.49047 -81.69129 38 ft 20 kts 227°
2026-05-05 20:25 30.48952 -81.69260 34 ft 23 kts 231°
2026-05-05 20:25 30.48936 -81.69414 35 ft 22 kts 311°
2026-05-05 20:25 30.49038 -81.69548 36 ft 22 kts 310°
2026-05-05 20:25 30.49134 -81.69683 37 ft 22 kts 310°
2026-05-05 20:26 30.49243 -81.69830 37 ft 25 kts 310°
2026-05-05 20:26 30.49297 -81.69903 35 ft 7 kts 311°
2026-05-05 20:26 30.49310 -81.69962 35 ft 9 kts 229°
2026-05-05 20:26 30.49260 -81.70025 35 ft 12 kts 225°
2026-05-05 20:27 30.49188 -81.70050 37 ft 12 kts 141°
2026-05-05 20:27 30.49100 -81.69924 36 ft 51 kts 130°
2026-05-05 20:27 30.48679 -81.69346 30 ft 136 kts 130°
2026-05-05 20:27 30.47909 -81.68394 501 ft 171 kts 138°
2026-05-05 20:28 30.46940 -81.67531 1529 ft 176 kts 144°
2026-05-05 20:28 30.46010 -81.66536 2397 ft 185 kts 132°
2026-05-05 20:28 30.45135 -81.65399 3192 ft 193 kts 134°
2026-05-05 20:28 30.44166 -81.64244 3690 ft 214 kts 136°
2026-05-05 20:29 30.43043 -81.62928 3894 ft 244 kts 137°
2026-05-05 20:29 30.41771 -81.61454 4313 ft 266 kts 138°
2026-05-05 20:29 30.40426 -81.59907 5059 ft 276 kts 138°
2026-05-05 20:29 30.39053 -81.58335 5932 ft 280 kts 138°
2026-05-05 20:30 30.37660 -81.56749 6696 ft 287 kts 139°
2026-05-05 20:30 30.36219 -81.55115 7502 ft 291 kts 138°
2026-05-05 20:30 30.34760 -81.53466 8326 ft 295 kts 138°
2026-05-05 20:30 30.33282 -81.51798 9104 ft 301 kts 138°
2026-05-05 20:31 30.31766 -81.50092 9923 ft 305 kts 137°
2026-05-05 20:31 30.30216 -81.48349 10456 ft 319 kts 137°
2026-05-05 20:31 30.28558 -81.46489 10657 ft 344 kts 137°
2026-05-05 20:31 30.26807 -81.44526 11162 ft 355 kts 137°
2026-05-05 20:32 30.25031 -81.42531 11848 ft 360 kts 137°
2026-05-05 20:32 30.23214 -81.40493 12579 ft 363 kts 137°
2026-05-05 20:32 30.21391 -81.38450 13290 ft 368 kts 137°
2026-05-05 20:32 30.19553 -81.36391 13952 ft 373 kts 137°
2026-05-05 20:33 30.17710 -81.34328 14539 ft 378 kts 137°
2026-05-05 20:33 30.15823 -81.32217 15159 ft 382 kts 137°
2026-05-05 20:33 30.13962 -81.30137 15751 ft 385 kts 137°
2026-05-05 20:33 30.12008 -81.27954 16361 ft 390 kts 137°
2026-05-05 20:34 30.10076 -81.25796 16918 ft 395 kts 137°
2026-05-05 20:34 30.08134 -81.23629 17481 ft 400 kts 137°
2026-05-05 20:34 30.06104 -81.21380 18053 ft 405 kts 140°
2026-05-05 20:34 30.03860 -81.19506 18566 ft 405 kts 155°
2026-05-05 20:35 30.01244 -81.18389 19068 ft 402 kts 172°
2026-05-05 20:35 29.98470 -81.17981 19604 ft 400 kts 181°
2026-05-05 20:35 29.95688 -81.17778 20106 ft 404 kts 181°
2026-05-05 20:35 29.92873 -81.17519 20596 ft 409 kts 180°
2026-05-05 20:36 29.90022 -81.17125 21080 ft 417 kts 173°
2026-05-05 20:36 29.87223 -81.16138 21565 ft 427 kts 161°
2026-05-05 20:36 29.84569 -81.14525 22040 ft 436 kts 151°
2026-05-05 20:36 29.81943 -81.12778 22461 ft 436 kts 162°
2026-05-05 20:37 29.79041 -81.11941 22858 ft 425 kts 182°
2026-05-05 20:37 29.77108 -81.11990 23201 ft 417 kts 193°
2026-05-05 20:37 29.73227 -81.12441 23818 ft 423 kts 190°
2026-05-05 20:37 29.70269 -81.12565 24140 ft 429 kts 188°
2026-05-05 20:38 29.67270 -81.12623 24481 ft 433 kts 187°
2026-05-05 20:38 29.64245 -81.12663 24851 ft 435 kts 187°
2026-05-05 20:38 29.61206 -81.12706 25208 ft 438 kts 187°
2026-05-05 20:38 29.58134 -81.12760 25552 ft 441 kts 188°
2026-05-05 20:39 29.55103 -81.12822 25890 ft 444 kts 188°
2026-05-05 20:39 29.52003 -81.12890 26255 ft 446 kts 188°
2026-05-05 20:39 29.48932 -81.12959 26734 ft 444 kts 188°
2026-05-05 20:39 29.45853 -81.13029 27218 ft 444 kts 188°
2026-05-05 20:40 29.42762 -81.13100 27668 ft 444 kts 188°
2026-05-05 20:40 29.39679 -81.13172 28016 ft 447 kts 188°
2026-05-05 20:40 29.36561 -81.13245 27986 ft 450 kts 188°
2026-05-05 20:41 29.30346 -81.13251 27988 ft 448 kts 181°
2026-05-05 20:41 29.24677 -81.11672 28015 ft 463 kts 166°
2026-05-05 20:42 29.19557 -81.09665 28009 ft 465 kts 166°
2026-05-05 20:42 29.14456 -81.07700 28014 ft 466 kts 167°
2026-05-05 20:43 29.08291 -81.05376 28006 ft 465 kts 167°
2026-05-05 20:43 29.02148 -81.03082 28007 ft 463 kts 167°
2026-05-05 20:44 28.96038 -81.00805 28009 ft 461 kts 167°
2026-05-05 20:44 28.92986 -80.99668 27989 ft 460 kts 167°
2026-05-05 20:44 28.89942 -80.98533 28005 ft 460 kts 167°
2026-05-05 20:44 28.86900 -80.97400 27999 ft 459 kts 167°
2026-05-05 20:45 28.80824 -80.95139 27996 ft 460 kts 167°
2026-05-05 20:45 28.74687 -80.92804 28429 ft 468 kts 164°
2026-05-05 20:46 28.71665 -80.91428 28928 ft 468 kts 162°
2026-05-05 20:46 28.68654 -80.89959 29073 ft 474 kts 161°
2026-05-05 20:46 28.62630 -80.86977 29068 ft 469 kts 161°
2026-05-05 20:47 28.56665 -80.84094 29101 ft 465 kts 162°
2026-05-05 20:47 28.50734 -80.81276 29098 ft 465 kts 162°
2026-05-05 20:48 28.44768 -80.78446 29092 ft 465 kts 162°
2026-05-05 20:48 28.38791 -80.75611 29089 ft 465 kts 162°
2026-05-05 20:49 28.32814 -80.72780 29067 ft 465 kts 162°
2026-05-05 20:49 28.26848 -80.69956 29068 ft 464 kts 162°
2026-05-05 20:50 28.20884 -80.67160 29065 ft 463 kts 165°
2026-05-05 20:50 28.14738 -80.65160 29067 ft 457 kts 172°
2026-05-05 20:51 28.08552 -80.63423 29063 ft 458 kts 172°
2026-05-05 20:51 28.02382 -80.61631 29046 ft 458 kts 171°
2026-05-05 20:52 27.96227 -80.59794 29053 ft 458 kts 171°
2026-05-05 20:52 27.90067 -80.57947 29061 ft 457 kts 171°
2026-05-05 20:53 27.83917 -80.56107 29066 ft 457 kts 171°
2026-05-05 20:53 27.77770 -80.54272 29066 ft 457 kts 171°
2026-05-05 20:54 27.71626 -80.52441 29050 ft 457 kts 171°
2026-05-05 20:54 27.65524 -80.50618 29063 ft 458 kts 169°
2026-05-05 20:55 27.59451 -80.48343 29069 ft 461 kts 165°
2026-05-05 20:55 27.53504 -80.45881 28969 ft 449 kts 165°
2026-05-05 20:56 27.50577 -80.44685 28624 ft 443 kts 165°
2026-05-05 20:56 27.47702 -80.43528 28297 ft 439 kts 165°
2026-05-05 20:56 27.44798 -80.42373 27900 ft 436 kts 166°
2026-05-05 20:56 27.41945 -80.41245 27515 ft 432 kts 166°
2026-05-05 20:57 27.39123 -80.40132 27139 ft 429 kts 166°
2026-05-05 20:57 27.36312 -80.39024 26756 ft 426 kts 166°
2026-05-05 20:57 27.33526 -80.37926 26385 ft 424 kts 166°
2026-05-05 20:57 27.30750 -80.36831 26013 ft 421 kts 166°
2026-05-05 20:58 27.27983 -80.35740 25638 ft 419 kts 166°
2026-05-05 20:58 27.25251 -80.34663 25270 ft 417 kts 166°
2026-05-05 20:58 27.22513 -80.33585 24879 ft 415 kts 166°
2026-05-05 20:58 27.19791 -80.32515 24566 ft 411 kts 166°
2026-05-05 20:59 27.17110 -80.31469 24291 ft 407 kts 166°
2026-05-05 20:59 27.14436 -80.30432 23939 ft 405 kts 166°
2026-05-05 20:59 27.11788 -80.29406 23550 ft 403 kts 166°
2026-05-05 20:59 27.09134 -80.28378 23147 ft 401 kts 166°
2026-05-05 21:00 27.06510 -80.27361 22754 ft 398 kts 166°
2026-05-05 21:00 27.03890 -80.26346 22375 ft 396 kts 166°
2026-05-05 21:00 27.01331 -80.25354 22009 ft 393 kts 166°
2026-05-05 21:00 26.98725 -80.24344 21638 ft 391 kts 166°
2026-05-05 21:01 26.96197 -80.23365 21281 ft 388 kts 165°
2026-05-05 21:01 26.93653 -80.22380 20925 ft 386 kts 165°
2026-05-05 21:01 26.91122 -80.21401 20567 ft 384 kts 165°
2026-05-05 21:01 26.88611 -80.20430 20208 ft 382 kts 165°
2026-05-05 21:02 26.86100 -80.19460 19851 ft 380 kts 165°
2026-05-05 21:02 26.83607 -80.18521 19505 ft 377 kts 165°
2026-05-05 21:02 26.81109 -80.17599 19155 ft 375 kts 165°
2026-05-05 21:02 26.78638 -80.16689 18799 ft 374 kts 165°
2026-05-05 21:03 26.76171 -80.15778 18449 ft 373 kts 165°
2026-05-05 21:03 26.73705 -80.14866 18052 ft 372 kts 165°
2026-05-05 21:03 26.71255 -80.13959 17668 ft 369 kts 165°
2026-05-05 21:03 26.68798 -80.13188 17301 ft 365 kts 170°
2026-05-05 21:04 26.66328 -80.12557 16937 ft 362 kts 171°
2026-05-05 21:04 26.63871 -80.11929 16575 ft 360 kts 170°
2026-05-05 21:04 26.61436 -80.11285 16228 ft 359 kts 170°
2026-05-05 21:04 26.59013 -80.10639 15869 ft 358 kts 170°
2026-05-05 21:05 26.56590 -80.10026 15511 ft 356 kts 171°
2026-05-05 21:05 26.54179 -80.09431 15165 ft 353 kts 171°
2026-05-05 21:05 26.51822 -80.08848 14814 ft 351 kts 171°
2026-05-05 21:05 26.49439 -80.08256 14470 ft 349 kts 171°
2026-05-05 21:06 26.47078 -80.07667 14110 ft 347 kts 171°
2026-05-05 21:06 26.44721 -80.07099 13761 ft 345 kts 172°
2026-05-05 21:06 26.42372 -80.06603 13389 ft 343 kts 173°
2026-05-05 21:06 26.40033 -80.06121 13031 ft 340 kts 173°
2026-05-05 21:07 26.37734 -80.05593 12873 ft 333 kts 169°
2026-05-05 21:07 26.35510 -80.04970 12710 ft 325 kts 169°
2026-05-05 21:07 26.33351 -80.04356 12574 ft 318 kts 169°
2026-05-05 21:07 26.31217 -80.03756 12449 ft 315 kts 169°
2026-05-05 21:08 26.29101 -80.03172 12321 ft 312 kts 169°
2026-05-05 21:08 26.27004 -80.02597 12201 ft 309 kts 169°
2026-05-05 21:08 26.24892 -80.02250 12047 ft 306 kts 187°
2026-05-05 21:08 26.22813 -80.02671 11977 ft 304 kts 197°
2026-05-05 21:09 26.20747 -80.03202 11829 ft 305 kts 196°
2026-05-05 21:09 26.18678 -80.03698 11690 ft 304 kts 196°
2026-05-05 21:09 26.16609 -80.04182 11569 ft 302 kts 195°
2026-05-05 21:09 26.14558 -80.04655 11441 ft 301 kts 195°
2026-05-05 21:10 26.12513 -80.05124 11316 ft 300 kts 195°
2026-05-05 21:10 26.10458 -80.05595 11230 ft 305 kts 196°
2026-05-05 21:10 26.08358 -80.06076 11075 ft 309 kts 195°
2026-05-05 21:10 26.06254 -80.06560 10856 ft 309 kts 196°
2026-05-05 21:11 26.04168 -80.07094 10585 ft 305 kts 197°
2026-05-05 21:11 26.02118 -80.07636 10348 ft 300 kts 197°
2026-05-05 21:11 26.00103 -80.08168 10117 ft 296 kts 197°
2026-05-05 21:11 25.98107 -80.08690 9918 ft 290 kts 197°
2026-05-05 21:12 25.96181 -80.09189 9700 ft 284 kts 197°
2026-05-05 21:12 25.94271 -80.09686 9430 ft 282 kts 197°
2026-05-05 21:12 25.92395 -80.10327 9151 ft 273 kts 213°
2026-05-05 21:12 25.91075 -80.11651 9110 ft 250 kts 233°
2026-05-05 21:13 25.89969 -80.13065 9010 ft 235 kts 231°
2026-05-05 21:13 25.88902 -80.14367 8890 ft 221 kts 231°
2026-05-05 21:13 25.88031 -80.15685 8748 ft 205 kts 251°
2026-05-05 21:13 25.87890 -80.17225 8315 ft 204 kts 274°
2026-05-05 21:14 25.87922 -80.18801 8016 ft 200 kts 268°
2026-05-05 21:14 25.87857 -80.20326 7734 ft 197 kts 268°
2026-05-05 21:14 25.87793 -80.21851 7450 ft 198 kts 268°
2026-05-05 21:14 25.87736 -80.23375 7239 ft 198 kts 268°
2026-05-05 21:15 25.87682 -80.24902 7015 ft 197 kts 268°
2026-05-05 21:15 25.87631 -80.26412 6714 ft 197 kts 268°
2026-05-05 21:15 25.87581 -80.27935 6380 ft 197 kts 268°
2026-05-05 21:15 25.87674 -80.29436 6028 ft 196 kts 289°
2026-05-05 21:16 25.88344 -80.30713 5759 ft 193 kts 301°
2026-05-05 21:16 25.89005 -80.32005 5509 ft 190 kts 297°
2026-05-05 21:16 25.89620 -80.33273 5315 ft 182 kts 297°
2026-05-05 21:16 25.90210 -80.34486 5159 ft 173 kts 297°
2026-05-05 21:17 25.90770 -80.35640 4919 ft 167 kts 297°
2026-05-05 21:17 25.91320 -80.36773 4759 ft 167 kts 298°
2026-05-05 21:17 25.91873 -80.37909 4561 ft 166 kts 298°
2026-05-05 21:17 25.92419 -80.39031 4385 ft 164 kts 298°
2026-05-05 21:18 25.92960 -80.40143 4218 ft 163 kts 298°
2026-05-05 21:18 25.93494 -80.41241 4079 ft 164 kts 298°
2026-05-05 21:18 25.93830 -80.42463 3977 ft 170 kts 265°
2026-05-05 21:18 25.93230 -80.43537 3976 ft 174 kts 212°
2026-05-05 21:19 25.92051 -80.43726 3957 ft 176 kts 175°
2026-05-05 21:19 25.90751 -80.43646 3487 ft 181 kts 188°
2026-05-05 21:19 25.89583 -80.43858 3253 ft 166 kts 185°
2026-05-05 21:19 25.88520 -80.43599 3073 ft 155 kts 147°
2026-05-05 21:20 25.87545 -80.42872 3201 ft 179 kts 147°
2026-05-05 21:20 25.86571 -80.42067 3122 ft 169 kts 139°
2026-05-05 21:20 25.85728 -80.41175 2697 ft 168 kts 128°
2026-05-05 21:20 25.85043 -80.40134 2204 ft 166 kts 123°
2026-05-05 21:21 25.84457 -80.39105 2015 ft 147 kts 117°
2026-05-05 21:21 25.83940 -80.38111 1913 ft 154 kts 117°
2026-05-05 21:21 25.83399 -80.37079 1436 ft 151 kts 117°
2026-05-05 21:21 25.82937 -80.36093 1115 ft 139 kts 114°
2026-05-05 21:22 25.82500 -80.35136 906 ft 139 kts 120°
2026-05-05 21:22 25.81954 -80.34256 737 ft 140 kts 123°
2026-05-05 21:22 25.81469 -80.33326 647 ft 140 kts 117°
2026-05-05 21:22 25.81027 -80.32345 514 ft 143 kts 117°
2026-05-05 21:23 25.80543 -80.31389 310 ft 139 kts 118°
2026-05-05 21:23 25.80058 -80.30463 100 ft 136 kts 117°
2026-05-05 21:23 25.79593 -80.29596 21 ft 120 kts 116°
2026-05-05 21:23 25.79293 -80.28969 17 ft 62 kts 120°
2026-05-05 21:24 25.79130 -80.28645 19 ft 28 kts 114°